Location: Drummondville
(45.8830°N, 72.4830°W)
Time: 12:34:19
(UTC-04:00)

Vanguard 2 Rocket - All Passes

Search period start: 22 July 2018 00:00
Search period end: 01 August 2018 00:00
Orbit: 554 x 3327 km, 32.9° (Epoch: 21 July)

Date Brightness Start Highest point End Pass type
(mag) Time Alt. Az. Time Alt. Az. Time Alt. Az.
22 Jul - 02:11:48 10° S 02:15:09 16° SSE 02:19:25 10° ESE visible
22 Jul - 04:21:16 10° SW 04:27:13 34° S 04:36:49 10° ESE visible
22 Jul - 06:32:56 10° WSW 06:40:47 34° S 06:53:16 10° SE daylight
22 Jul - 08:47:03 10° WSW 08:55:24 21° SSW 09:06:29 10° SSE daylight
23 Jul - 03:23:00 10° SW 03:27:53 27° SSE 03:35:18 10° ESE visible
23 Jul - 05:34:04 10° WSW 05:40:51 34° S 05:51:49 10° SE daylight
23 Jul - 07:47:02 10° WSW 07:55:01 24° SSW 08:06:22 10° SSE daylight
24 Jul - 02:25:04 10° SSW 02:28:51 20° SSE 02:33:58 10° ESE visible
24 Jul - 04:35:26 10° WSW 04:41:12 32° S 04:50:24 10° ESE visible
24 Jul - 06:47:36 10° WSW 06:54:50 27° SSW 07:05:41 10° SE daylight
24 Jul - 09:04:03 10° SW 09:09:18 13° SSW 09:15:31 10° S daylight
25 Jul - 01:27:51 10° S 01:29:58 13° SSE 01:32:24 10° SE visible
25 Jul - 03:37:00 10° SW 03:41:49 28° S 03:49:08 10° ESE visible
25 Jul - 05:48:33 10° WSW 05:54:55 28° S 06:04:43 10° SE daylight
25 Jul - 08:02:50 10° WSW 08:09:01 17° SSW 08:17:00 10° S daylight
26 Jul - 02:38:47 10° SW 02:42:42 22° SSE 02:48:06 10° ESE visible
26 Jul - 04:49:47 10° WSW 04:55:15 28° S 05:03:40 10° SE visible
26 Jul - 07:02:49 10° WSW 07:08:54 19° SSW 07:17:16 10° SSE daylight
27 Jul - 01:40:54 10° SSW 01:43:44 16° SSE 01:47:12 10° ESE visible
27 Jul - 03:51:13 10° SW 03:55:51 26° S 04:02:44 10° SE visible
27 Jul - 06:03:25 10° WSW 06:09:01 21° SSW 06:17:00 10° SSE daylight
28 Jul - 00:44:17 10° SSE 00:44:52 10° SSE 00:45:26 10° SSE night (unlit)
28 Jul - 02:52:49 10° SW 02:56:40 23° S 03:01:59 10° ESE visible
28 Jul - 05:04:25 10° WSW 05:09:22 22° S 05:16:30 10° SE daylight
28 Jul - 07:19:41 10° SW 07:23:00 12° SSW 07:26:52 10° S daylight
29 Jul - 01:54:35 10° SSW 01:57:38 18° SSE 02:01:27 10° SE visible
29 Jul - 04:05:41 10° SW 04:09:57 22° S 04:15:58 10° SE visible
29 Jul - 06:19:13 10° SW 06:23:10 14° SSW 06:28:05 10° S daylight
30 Jul - 00:56:39 10° SSW 00:58:43 13° SSE 01:00:59 10° SE night (unlit)
30 Jul - 03:07:07 10° SW 03:10:43 21° S 03:15:34 10° SE visible
30 Jul - 05:19:40 10° SW 05:23:31 16° SSW 05:28:29 10° SSE daylight
31 Jul - 02:08:39 10° SW 02:11:39 18° S 02:15:22 10° SE visible
31 Jul - 04:20:35 10° SW 04:24:05 16° S 04:28:37 10° SSE visible
